{"data":{"norad_id":37166,"intl_designator":"2010-047B","name":"ZHEDA PIXING 1B","alt_names":[],"object_type":"PAYLOAD","status":"ACTIVE","operator":null,"country":"PRC","launch_date":"2010-09-22","launch_site_code":"JSC","launch_vehicle":null,"mission":null,"orbit_class":"UNKNOWN","rcs_meters":0.149,"size_class":null,"mass_kg":null,"dimensions":null,"purposes":[],"wikipedia_slug":null,"has_3d_model":false,"image_url":null,"decayed_at":null,"tle_current":{"epoch":"2026-09-20T04:07:41.136096Z","epoch_age_seconds":54008,"freshness":"FRESH","line1":"1 37166U 10047B   26263.17200389  .00001819  00000+0  18711-3 0  9993","line2":"2 37166  97.9602 242.1438 0018623 332.2539  27.7684 14.91482217864572","mean_motion":14.91482217,"eccentricity":0.0018623,"inclination_deg":97.9602,"raan_deg":242.1438,"arg_perigee_deg":332.2539,"mean_anomaly_deg":27.7684,"bstar":0.00018711,"rev_number":86457,"period_min":96.548251369463,"perigee_km":580.33014347229,"apogee_km":606.29600642144,"semimajor_km":6971.4500749469,"source":"CELESTRAK","updated_at":"2026-09-20T09:00:13.758063Z"}}}